This demonstration page uses our WeatherBlox Daily Observations layout. Learn more.

Left ArrowRight Arrow

36.17497, -115.13722

Hourly Observations for November 28, 2019

Temp ( °F °C ) Dew Point ( °F °C ) Humidity (%) Winds ( mph kmh ) Pressure ( in mb ) Visibility ( mi km ) Precip ( " mm )
12:53 am 00:53 Clear 44 6.7 31 -0.6 60 60 SSW 7 11 29.65 1004 10 16 0.00 0.00
1:53 am 01:53 Clear 45 7.2 30 -1.1 56 56 SE 6 9 29.66 1005 10 16 0.00 0.00
2:53 am 02:53 Clear 41 5 32 0 70 70 SE 9 15 29.67 1005 10 16 0.00 0.00
3:53 am 03:53 Clear 43 6.1 30 -1.1 60 60 S 7 11 29.68 1005 10 16 0.00 0.00
4:53 am 04:53 Clear 39 3.9 31 -0.6 73 73 NW 5 7 29.69 1006 10 16 0.00 0.00
5:53 am 05:53 Clear 38 3.3 30 -1.1 73 73 NW 3 6 29.71 1006 10 16 0.00 0.00
6:53 am 06:53 Sunny 36 2.2 31 -0.6 82 82 W 3 6 29.73 1007 10 16 0.00 0.00
7:53 am 07:53 Sunny 40 4.4 33 0.6 77 77 Calm 29.73 1007 10 16 0.00 0.00
8:53 am 08:53 Sunny 45 7.2 33 0.6 63 63 SE 3 6 29.73 1007 10 16 0.00 0.00
9:53 am 09:53 Mostly Sunny 48 8.9 34 1.1 58 58 E 8 13 29.72 1006 10 16 0.00 0.00
10:53 am 10:53 Mostly Cloudy 49 9.4 36 2.2 61 61 E 13 20 29.70 1006 10 16 0.00 0.00
11:53 am 11:53 Cloudy 49 9.4 37 2.8 64 64 E 14 22 29.66 1004 10 16 0.00 0.00
12:53 pm 12:53 Cloudy with Light Rain 48 8.9 40 4.4 74 74 E 13 20 29.62 1003 7 11 0.01 0.25
1:20 pm 13:20 Cloudy with Rain 47 8.3 41 5 80 80 VRB 3 6 29.58 1002 4 6 0.05 1.27
1:53 pm 13:53 Cloudy with Heavy Rain 46 7.8 41 5 83 83 S 6 9 29.61 1003 3 4 0.18 4.57
2:25 pm 14:25 Cloudy with Light Rain 46 7.8 42 5.6 86 86 WNW 6 9 29.56 1001 7 11 0.14 3.56
2:53 pm 14:53 Cloudy with Heavy Rain 44 6.7 41 5 89 89 W 5 7 29.60 1003 2 3 0.22 5.59
3:10 pm 15:10 Cloudy with Rain 45 7.2 41 5 86 86 W 12 19 29.56 1001 3 5 0.05 1.27
3:15 pm 15:15 Cloudy with Rain 45 7.2 41 5 86 86 W 9 15 29.56 1001 3 5 0.07 1.78
3:44 pm 15:44 Cloudy with Rain 45 7.2 41 5 86 86 W 8 13 29.55 1001 3 5 0.12 3.05
3:53 pm 15:53 Cloudy with Rain 45 7.2 41 5 86 86 W 8 13 29.58 1002 3 5 0.14 3.56
4:21 pm 16:21 Cloudy with Light Rain 45 7.2 42 5.6 90 90 W 3 6 29.55 1001 3 5 0.04 1.02
4:38 pm 16:38 Cloudy with Light Rain 45 7.2 42 5.6 90 90 Calm 29.55 1001 3 5 0.05 1.27
4:50 pm 16:50 Cloudy with Light Rain 45 7 41 5 87 87 NNW 3 6 29.54 1000 3 5 0.07 1.78
4:53 pm 16:53 Cloudy with Light Rain 45 7.2 41 5 86 86 NNW 3 6 29.57 1002 3 5 0.07 1.78
5:53 pm 17:53 Cloudy with Light Rain 44 6.7 41 5 89 89 NNW 7 11 29.57 1001 3 5 0.01 0.25
6:32 pm 18:32 Cloudy with Light Rain 42 5.6 37 2.8 82 82 WNW 12 19 29.58 1002 3 5 0.01 0.25
6:48 pm 18:48 Cloudy with Light Rain 41 5 37 3 87 87 NNW 8 13 29.57 1001 3 5 0.02 0.51
6:53 pm 18:53 Cloudy with Light Rain 41 5 38 3.3 89 89 NNW 8 13 29.59 1002 3 5 0.02 0.51
7:29 pm 19:29 Cloudy 41 5 37 2.8 86 86 NW 9 15 29.58 1002 3 5 0.01 0.25
7:53 pm 19:53 Cloudy with Light Rain 41 5 37 2.8 86 86 NNW 7 11 29.58 1002 3 5 0.02 0.51
8:53 pm 20:53 Cloudy 41 5 37 2.8 86 86 N 9 15 29.60 1003 3 5 0.00 0.00
9:53 pm 21:53 Cloudy 41 5 37 2.8 86 86 N 5 7 29.60 1002 3 5 0.00 0.00
10:09 pm 22:09 Cloudy 41 5 37 2.8 86 86 Calm 29.62 1003 3 5 0.00 0.00
10:53 pm 22:53 Cloudy 41 5 38 3.3 89 89 Calm 29.61 1003 3 5 0.00 0.00
11:53 pm 23:53 Mostly Cloudy 41 5 38 3.3 89 89 Calm 29.61 1003 3 5 0.00 0.00

Powered by AerisWeather